Weather History for Imperial, NE

Change the Weather History Date:

Monday, November 19, 2012

  Actual Average Record
Temperature  
Mean Temperature 51 °F 36 °F  
Max Temperature 67 °F 50 °F 80 °F (2007)
Min Temperature 35 °F 23 °F 2 °F (1937)
Degree Days  
Heating Degree Days 14 29  
Month to date heating degree days 429 473  
Cooling Degree Days 0 0  
Month to date cooling degree days 0 0  
Year to date cooling degree days 1382 963  
Growing Degree Days 1 (Base 50)    
Moisture  
Dew Point 30 °F    
Average Humidity 48    
Maximum Humidity 70    
Minimum Humidity 26    
Precipitation  
Precipitation 0.00 in 0.01 in 1.14 in (1975)
Sea Level Pressure  
Sea Level Pressure 30.16 in    
Wind  
Wind Speed 8 mph (NW)    
Max Wind Speed 18 mph    
Max Gust Speed 23 mph    
Visibility 10 miles    
Events      
T = Trace of Precipitation, MM = Missing Value Source: NWS Daily Summary

Daily Weather History Graph

Daily Weather History Graph

Search for Another Location

Airport:

Trip Planner

Search our weather history database for the weather conditions in past years. The results will help you decide how hot, cold, wet, or windy it might be!

Date:

Astronomy

Nov. 19, 2012 Rise Set
Actual Time 6:38 AM MST 4:25 PM MST
Civil Twilight 6:08 AM MST 4:55 PM MST
Nautical Twilight 5:35 AM MST 5:28 PM MST
Astronomical Twilight 5:02 AM MST 6:00 PM MST
Moon 11:41 AM MST 10:55 PM MST
Length of Visible Light 10h 46m
Length of Day
9h 47m
Waxing Crescent, 41% of the Moon is Illuminated
Nov 19
Waxing Crescent
Nov 20
First Quarter
Nov 28
Full
Dec 6
Last Quarter
Dec 13
New

Hourly Weather History & Observations

Time (MST) Temp. Windchill Dew Point Humidity Pressure Visibility Wind Dir Wind Speed Gust Speed Precip Events Conditions
12:53 AM 39.9 °F 33.4 °F 28.9 °F 65% 30.04 in 10.0 mi West 10.4 mph - N/A   Partly Cloudy
1:53 AM 43.0 °F 37.7 °F 28.0 °F 56% 30.06 in 10.0 mi WNW 9.2 mph - N/A   Clear
2:53 AM 39.9 °F 33.4 °F 28.0 °F 63% 30.07 in 10.0 mi WNW 10.4 mph - N/A   Clear
3:53 AM 37.9 °F 32.1 °F 28.0 °F 68% 30.10 in 10.0 mi WNW 8.1 mph - N/A   Clear
4:53 AM 39.0 °F 31.4 °F 28.9 °F 67% 30.13 in 10.0 mi WNW 12.7 mph - N/A   Mostly Cloudy
5:53 AM 41.0 °F 35.2 °F 30.0 °F 65% 30.14 in 10.0 mi WNW 9.2 mph - N/A   Mostly Cloudy
6:53 AM 45.0 °F 38.9 °F 30.9 °F 58% 30.17 in 10.0 mi WNW 12.7 mph 21.9 mph N/A   Partly Cloudy
7:53 AM 46.0 °F 41.0 °F 32.0 °F 58% 30.19 in 10.0 mi WNW 10.4 mph - N/A   Clear
8:53 AM 51.1 °F - 33.1 °F 50% 30.20 in 10.0 mi NW 12.7 mph - N/A   Clear
9:53 AM 59.0 °F - 34.0 °F 39% 30.21 in 10.0 mi NW 13.8 mph - N/A   Clear
10:53 AM 63.0 °F - 32.0 °F 31% 30.18 in 10.0 mi NW 11.5 mph - N/A   Clear
11:53 AM 66.0 °F - 30.9 °F 27% 30.15 in 10.0 mi NNW 17.3 mph - N/A   Clear
12:53 PM 66.0 °F - 30.9 °F 27% 30.14 in 10.0 mi NNW 11.5 mph 21.9 mph N/A   Clear
1:53 PM 66.9 °F - 30.9 °F 26% 30.12 in 10.0 mi NNW 9.2 mph - N/A   Clear
2:53 PM 64.0 °F - 30.9 °F 29% 30.13 in 10.0 mi NNE 8.1 mph - N/A   Clear
3:53 PM 60.1 °F - 30.9 °F 33% 30.15 in 10.0 mi NE 4.6 mph - N/A   Clear
4:53 PM 46.0 °F 43.9 °F 28.9 °F 51% 30.19 in 10.0 mi ENE 4.6 mph - N/A   Clear
5:53 PM 46.9 °F - 28.9 °F 50% 30.21 in 10.0 mi Calm Calm - N/A   Clear
6:53 PM 41.0 °F 39.0 °F 28.0 °F 60% 30.21 in 10.0 mi North 3.5 mph - N/A   Clear
7:53 PM 39.9 °F 35.8 °F 28.9 °F 65% 30.23 in 10.0 mi WSW 5.8 mph - N/A   Clear
8:53 PM 37.9 °F - 28.0 °F 68% 30.23 in 10.0 mi Calm Calm - N/A   Clear
9:53 PM 36.0 °F - 27.0 °F 70% 30.22 in 10.0 mi Calm Calm - N/A   Clear
10:53 PM 36.0 °F 33.3 °F 27.0 °F 70% 30.21 in 10.0 mi SSW 3.5 mph - N/A   Clear
11:53 PM 36.0 °F 33.3 °F 27.0 °F 70% 30.21 in 10.0 mi West 3.5 mph - N/A   Clear